| time (UTC) | temp F | wind direction | speed MPH | gust MPH | rain 1hr in | rain 24hr in | rain mn in | humidity % | barometer mb |
| 20260502203411 | 85 | 276 | 3.0 | 5.0 | 0.00 | 0.00 | 0.00 | 28 | 1009.7 |
| 20260502202906 | 86 | 184 | 3.0 | 4.0 | 0.00 | 0.00 | 0.00 | 28 | 1009.8 |
| 20260502202404 | 86 | 131 | 1.0 | 1.0 | 0.00 | 0.00 | 0.00 | 23 | 1009.6 |
| 20260502201902 | 86 | 256 | 2.0 | 2.0 | 0.00 | 0.00 | 0.00 | 28 | 1009.6 |
| 20260502201358 | 85 | 59 | 1.0 | 2.0 | 0.00 | 0.00 | 0.00 | 30 | 1009.6 |
| 20260502200855 | 85 | 115 | 3.0 | 4.0 | 0.00 | 0.00 | 0.00 | 32 | 1009.8 |
| 20260502200350 | 85 | 150 | 2.0 | 4.0 | 0.00 | 0.00 | 0.00 | 32 | 1009.8 |
| 20260502195848 | 84 | 74 | 3.0 | 4.0 | 0.00 | 0.00 | 0.00 | 33 | 1009.8 |
| 20260502195344 | 84 | 236 | 1.0 | 1.0 | 0.00 | 0.00 | 0.00 | 34 | 1009.9 |
| 20260502194841 | 85 | 193 | 3.0 | 6.0 | 0.00 | 0.00 | 0.00 | 35 | 1010.1 |
| 20260502194338 | 84 | 97 | 2.0 | 4.0 | 0.00 | 0.00 | 0.00 | 37 | 1009.9 |
| 20260502193834 | 84 | 153 | 3.0 | 5.0 | 0.00 | 0.00 | 0.00 | 36 | 1010.1 |
| 20260502193331 | 83 | 161 | 1.0 | 2.0 | 0.00 | 0.00 | 0.00 | 36 | 1010.2 |
| 20260502192827 | 84 | 268 | 2.0 | 2.0 | 0.00 | 0.00 | 0.00 | 37 | 1010.3 |
| 20260502192324 | 84 | 165 | 1.0 | 2.0 | 0.00 | 0.00 | 0.00 | 37 | 1010.3 |
| 20260502191821 | 83 | 253 | 1.0 | 1.0 | 0.00 | 0.00 | 0.00 | 37 | 1010.4 |
| 20260502191319 | 83 | 89 | 0.0 | 1.0 | 0.00 | 0.00 | 0.00 | 38 | 1010.5 |
| 20260502190816 | 83 | 147 | 1.0 | 1.0 | 0.00 | 0.00 | 0.00 | 39 | 1010.3 |
| 20260502190313 | 83 | 310 | 2.0 | 2.0 | 0.00 | 0.00 | 0.00 | 38 | 1010.2 |
| 20260502185809 | 82 | 98 | 1.0 | 2.0 | 0.00 | 0.00 | 0.00 | 41 | 1010.4 |
| 20260502185305 | 82 | 78 | 0.0 | 1.0 | 0.00 | 0.00 | 0.00 | 40 | 1010.5 |
| 20260502184802 | 81 | 281 | 2.0 | 4.0 | 0.00 | 0.00 | 0.00 | 40 | 1010.8 |
| 20260502184257 | 82 | 182 | 0.0 | 1.0 | 0.00 | 0.00 | 0.00 | 41 | 1010.8 |
| 20260502183754 | 81 | 145 | 0.0 | 0.0 | 0.00 | 0.00 | 0.00 | 43 | 1011.0 |
| 20260502183250 | 80 | 279 | 1.0 | 1.0 | 0.00 | 0.00 | 0.00 | 45 | 1010.8 |
| 20260502182746 | 80 | 278 | 3.0 | 4.0 | 0.00 | 0.00 | 0.00 | 44 | 1010.6 |
| 20260502182241 | 79 | 3 | 0.0 | 0.0 | 0.00 | 0.00 | 0.00 | 45 | 1010.9 |
| 20260502181738 | 79 | 77 | 1.0 | 2.0 | 0.00 | 0.00 | 0.00 | 44 | 1011.0 |
| 20260502181238 | 79 | 280 | 0.0 | 1.0 | 0.00 | 0.00 | 0.00 | 46 | 1011.0 |
| 20260502180734 | 78 | 194 | 2.0 | 2.0 | 0.00 | 0.00 | 0.00 | 47 | 1011.1 |
| 20260502180232 | 79 | 264 | 1.0 | 2.0 | 0.00 | 0.00 | 0.00 | 47 | 1011.1 |
| 20260502170156 | 72 | 71 | 0.0 | 0.0 | 0.00 | 0.00 | 0.00 | 57 | 1011.1 |
| 20260502164142 | 70 | 65 | 0.0 | 1.0 | 0.00 | 0.00 | 0.00 | 61 | 1011.1 |
| 20260502163638 | 69 | 45 | 1.0 | 1.0 | 0.00 | 0.00 | 0.00 | 63 | 1011.3 |
| 20260502163135 | 68 | 357 | 0.0 | 1.0 | 0.00 | 0.00 | 0.00 | 65 | 1011.3 |
| 20260502162632 | 68 | 30 | 1.0 | 2.0 | 0.00 | 0.00 | 0.00 | 64 | 1011.4 |
| 20260502162129 | 68 | 40 | 1.0 | 1.0 | 0.00 | 0.00 | 0.00 | 64 | 1011.4 |
| 20260502161626 | 67 | 41 | 0.0 | 0.0 | 0.00 | 0.00 | 0.00 | 66 | 1011.4 |
| 20260502161123 | 67 | 348 | 0.0 | 0.0 | 0.00 | 0.00 | 0.00 | 67 | 1011.2 |
| 20260502160621 | 66 | 31 | 0.0 | 1.0 | 0.00 | 0.00 | 0.00 | 68 | 1011.4 |
| 20260502160119 | 64 | 286 | 0.0 | 0.0 | 0.00 | 0.00 | 0.00 | 71 | 1011.5 |
| 20260502152034 | 63 | 29 | 1.0 | 1.0 | 0.00 | 0.00 | 0.00 | 72 | 1011.4 |
| 20260502151531 | 62 | 238 | 2.0 | 4.0 | 0.00 | 0.00 | 0.00 | 73 | 1011.1 |
| 20260502151028 | 62 | 34 | 0.0 | 0.0 | 0.00 | 0.00 | 0.00 | 73 | 1011.2 |
| 20260502150526 | 61 | 260 | 2.0 | 2.0 | 0.00 | 0.00 | 0.00 | 75 | 1011.3 |
| 20260502130410 | 58 | 253 | 0.0 | 0.0 | 0.00 | 0.00 | 0.00 | 83 | 1009.8 |
| 20260502123353 | 57 | 306 | 0.0 | 1.0 | 0.00 | 0.00 | 0.00 | 85 | 1009.5 |
| 20260502122850 | 58 | 309 | 0.0 | 0.0 | 0.00 | 0.00 | 0.00 | 84 | 1009.1 |
| 20260502122346 | 57 | 309 | 0.0 | 0.0 | 0.00 | 0.00 | 0.00 | 84 | 1009.5 |
| 20260502121845 | 57 | 309 | 0.0 | 0.0 | 0.00 | 0.00 | 0.00 | 84 | 1009.3 |
| 20260502121341 | 58 | 309 | 0.0 | 0.0 | 0.00 | 0.00 | 0.00 | 84 | 1009.3 |
| 20260502120839 | 58 | 309 | 0.0 | 0.0 | 0.00 | 0.00 | 0.00 | 84 | 1009.2 |
| 20260502120335 | 58 | 307 | 0.0 | 0.0 | 0.00 | 0.00 | 0.00 | 83 | 1009.3 |
| 20260502115832 | 58 | 22 | 0.0 | 0.0 | 0.00 | 0.00 | 0.00 | 83 | 1009.4 |
| 20260502115329 | 58 | 21 | 0.0 | 0.0 | 0.00 | 0.00 | 0.00 | 83 | 1009.3 |
| 20260502114826 | 58 | 21 | 0.0 | 0.0 | 0.00 | 0.00 | 0.00 | 82 | 1009.2 |
| 20260502114323 | 58 | 21 | 0.0 | 0.0 | 0.00 | 0.00 | 0.00 | 82 | 1009.2 |
| 20260502113820 | 58 | 21 | 0.0 | 0.0 | 0.00 | 0.00 | 0.00 | 82 | 1009.3 |
| 20260502113317 | 58 | 19 | 0.0 | 0.0 | 0.00 | 0.00 | 0.00 | 82 | 1009.5 |
| 20260502112816 | 58 | 26 | 0.0 | 0.0 | 0.00 | 0.00 | 0.00 | 82 | 1009.4 |
| 20260502112313 | 59 | 28 | 0.0 | 1.0 | 0.00 | 0.00 | 0.00 | 82 | 1009.3 |
| 20260502111810 | 59 | 13 | 0.0 | 0.0 | 0.00 | 0.00 | 0.00 | 81 | 1009.2 |
| 20260502111307 | 59 | 13 | 0.0 | 0.0 | 0.00 | 0.00 | 0.00 | 81 | 1009.2 |
| 20260502110805 | 59 | 17 | 0.0 | 0.0 | 0.00 | 0.00 | 0.00 | 81 | 1009.4 |
| 20260502110303 | 59 | 331 | 0.0 | 0.0 | 0.00 | 0.00 | 0.00 | 81 | 1009.5 |
| 20260502105800 | 59 | 13 | 1.0 | 1.0 | 0.00 | 0.00 | 0.00 | 81 | 1009.5 |
| 20260502105256 | 59 | 38 | 0.0 | 0.0 | 0.00 | 0.00 | 0.00 | 81 | 1009.5 |
| 20260502104754 | 59 | 38 | 0.0 | 0.0 | 0.00 | 0.00 | 0.00 | 81 | 1009.5 |
| 20260502104251 | 59 | 40 | 1.0 | 1.0 | 0.00 | 0.00 | 0.00 | 81 | 1009.6 |
| 20260502103749 | 59 | 26 | 0.0 | 0.0 | 0.00 | 0.00 | 0.00 | 80 | 1009.5 |
| 20260502103246 | 60 | 26 | 0.0 | 0.0 | 0.00 | 0.00 | 0.00 | 80 | 1009.5 |
| 20260502102743 | 60 | 9 | 0.0 | 1.0 | 0.00 | 0.00 | 0.00 | 80 | 1009.7 |
| 20260502102239 | 60 | 25 | 1.0 | 1.0 | 0.00 | 0.00 | 0.00 | 80 | 1009.5 |
| 20260502101738 | 60 | 31 | 1.0 | 1.0 | 0.00 | 0.00 | 0.00 | 80 | 1009.8 |
| 20260502101235 | 60 | 47 | 1.0 | 1.0 | 0.00 | 0.00 | 0.00 | 80 | 1009.7 |
| 20260502100733 | 60 | 28 | 0.0 | 1.0 | 0.00 | 0.00 | 0.00 | 81 | 1009.7 |
| 20260502100232 | 60 | 29 | 1.0 | 1.0 | 0.00 | 0.00 | 0.00 | 81 | 1009.8 |
| 20260502091206 | 62 | 278 | 0.0 | 1.0 | 0.00 | 0.00 | 0.00 | 78 | 1010.3 |
| 20260502090703 | 62 | 27 | 0.0 | 0.0 | 0.00 | 0.00 | 0.00 | 78 | 1010.2 |
| 20260502090200 | 62 | 277 | 0.0 | 0.0 | 0.00 | 0.00 | 0.00 | 77 | 1010.4 |
| 20260502071055 | 67 | 256 | 2.0 | 4.0 | 0.00 | 0.00 | 0.00 | 70 | 1010.5 |
| 20260502070553 | 66 | 273 | 1.0 | 1.0 | 0.00 | 0.00 | 0.00 | 72 | 1010.4 |
| 20260502070051 | 66 | 359 | 0.0 | 0.0 | 0.00 | 0.00 | 0.00 | 73 | 1010.4 |
| 20260502065550 | 66 | 281 | 0.0 | 0.0 | 0.00 | 0.00 | 0.00 | 73 | 1010.3 |
| 20260502065047 | 66 | 281 | 0.0 | 0.0 | 0.00 | 0.00 | 0.00 | 72 | 1010.4 |
| 20260502064545 | 66 | 265 | 2.0 | 2.0 | 0.00 | 0.00 | 0.00 | 72 | 1010.3 |
| 20260502064042 | 66 | 252 | 0.0 | 1.0 | 0.00 | 0.00 | 0.00 | 72 | 1010.3 |
| 20260502063540 | 66 | 257 | 0.0 | 0.0 | 0.00 | 0.00 | 0.00 | 72 | 1010.5 |
| 20260502063037 | 66 | 210 | 1.0 | 1.0 | 0.00 | 0.00 | 0.00 | 72 | 1010.5 |
| 20260502062534 | 67 | 221 | 0.0 | 0.0 | 0.00 | 0.00 | 0.00 | 71 | 1010.0 |
| 20260502062032 | 67 | 254 | 1.0 | 1.0 | 0.00 | 0.00 | 0.00 | 70 | 1010.1 |
| 20260502061530 | 67 | 209 | 0.0 | 0.0 | 0.00 | 0.00 | 0.00 | 70 | 1010.3 |
| 20260502061027 | 67 | 59 | 0.0 | 0.0 | 0.00 | 0.00 | 0.00 | 69 | 1010.2 |
| 20260502060522 | 67 | 336 | 0.0 | 0.0 | 0.00 | 0.00 | 0.00 | 69 | 1010.3 |
| 20260502060019 | 67 | 21 | 0.0 | 0.0 | 0.00 | 0.00 | 0.00 | 68 | 1010.2 |
| 20260502055516 | 67 | 278 | 0.0 | 0.0 | 0.00 | 0.00 | 0.00 | 68 | 1010.0 |
| 20260502055015 | 67 | 122 | 0.0 | 1.0 | 0.00 | 0.00 | 0.00 | 68 | 1010.0 |
| 20260502054513 | 67 | 117 | 0.0 | 0.0 | 0.00 | 0.00 | 0.00 | 67 | 1010.1 |
| 20260502054010 | 67 | 143 | 0.0 | 0.0 | 0.00 | 0.00 | 0.00 | 66 | 1010.1 |
| 20260502053507 | 68 | 144 | 0.0 | 0.0 | 0.00 | 0.00 | 0.00 | 66 | 1010.1 |
| 20260502053005 | 68 | 142 | 0.0 | 0.0 | 0.00 | 0.00 | 0.00 | 64 | 1010.0 |
| 20260502052503 | 69 | 69 | 0.0 | 0.0 | 0.00 | 0.00 | 0.00 | 63 | 1010.1 |
| 20260502052001 | 69 | 265 | 0.0 | 0.0 | 0.00 | 0.00 | 0.00 | 62 | 1010.1 |
| 20260502051459 | 69 | 256 | 1.0 | 1.0 | 0.00 | 0.00 | 0.00 | 61 | 1009.9 |
| 20260502050955 | 69 | 239 | 1.0 | 1.0 | 0.00 | 0.00 | 0.00 | 61 | 1009.9 |
| 20260502050452 | 69 | 158 | 0.0 | 1.0 | 0.00 | 0.00 | 0.00 | 61 | 1010.0 |
| 20260502045949 | 69 | 121 | 0.0 | 1.0 | 0.00 | 0.00 | 0.00 | 60 | 1009.9 |
| 20260502045446 | 69 | 231 | 0.0 | 0.0 | 0.00 | 0.00 | 0.00 | 61 | 1010.0 |
| 20260502044943 | 70 | 248 | 0.0 | 0.0 | 0.00 | 0.00 | 0.00 | 60 | 1009.7 |
| 20260502044439 | 70 | 247 | 0.0 | 0.0 | 0.00 | 0.00 | 0.00 | 59 | 1009.8 |
| 20260502043936 | 70 | 247 | 0.0 | 0.0 | 0.00 | 0.00 | 0.00 | 58 | 1009.9 |
| 20260502043434 | 70 | 247 | 0.0 | 1.0 | 0.00 | 0.00 | 0.00 | 58 | 1010.0 |
| 20260502042933 | 71 | 247 | 0.0 | 0.0 | 0.00 | 0.00 | 0.00 | 57 | 1009.9 |
| 20260502042430 | 71 | 246 | 0.0 | 0.0 | 0.00 | 0.00 | 0.00 | 56 | 1009.6 |
| 20260502041927 | 71 | 250 | 0.0 | 0.0 | 0.00 | 0.00 | 0.00 | 56 | 1009.6 |
| 20260502041425 | 71 | 255 | 0.0 | 0.0 | 0.00 | 0.00 | 0.00 | 56 | 1009.4 |
| 20260502040922 | 72 | 254 | 0.0 | 0.0 | 0.00 | 0.00 | 0.00 | 55 | 1009.6 |
| 20260502040418 | 72 | 261 | 1.0 | 1.0 | 0.00 | 0.00 | 0.00 | 55 | 1009.5 |
| 20260502035915 | 72 | 263 | 0.0 | 1.0 | 0.00 | 0.00 | 0.00 | 55 | 1009.3 |
| 20260502035411 | 72 | 240 | 0.0 | 1.0 | 0.00 | 0.00 | 0.00 | 56 | 1009.4 |
| 20260502034909 | 72 | 245 | 0.0 | 0.0 | 0.00 | 0.00 | 0.00 | 55 | 1009.3 |
| 20260502034408 | 73 | 245 | 0.0 | 0.0 | 0.00 | 0.00 | 0.00 | 54 | 1009.5 |
| 20260502033906 | 73 | 245 | 0.0 | 0.0 | 0.00 | 0.00 | 0.00 | 53 | 1009.2 |
| 20260502033403 | 73 | 245 | 0.0 | 0.0 | 0.00 | 0.00 | 0.00 | 53 | 1009.1 |
| 20260502032859 | 74 | 245 | 0.0 | 0.0 | 0.00 | 0.00 | 0.00 | 53 | 1009.3 |
| 20260502032355 | 74 | 245 | 1.0 | 1.0 | 0.00 | 0.00 | 0.00 | 53 | 1009.0 |
| 20260502031853 | 75 | 246 | 0.0 | 0.0 | 0.00 | 0.00 | 0.00 | 51 | 1008.9 |
| 20260502031351 | 75 | 245 | 0.0 | 0.0 | 0.00 | 0.00 | 0.00 | 50 | 1009.0 |
| 20260502030849 | 76 | 247 | 0.0 | 0.0 | 0.00 | 0.00 | 0.00 | 49 | 1008.8 |
| 20260502030347 | 76 | 247 | 2.0 | 2.0 | 0.00 | 0.00 | 0.00 | 48 | 1008.9 |
| 20260502025844 | 77 | 257 | 1.0 | 1.0 | 0.00 | 0.00 | 0.00 | 46 | 1008.8 |
| 20260502025342 | 77 | 257 | 0.0 | 0.0 | 0.00 | 0.00 | 0.00 | 46 | 1008.9 |
| 20260502024839 | 78 | 257 | 0.0 | 0.0 | 0.00 | 0.00 | 0.00 | 45 | 1008.9 |
| 20260502024337 | 78 | 257 | 0.0 | 0.0 | 0.00 | 0.00 | 0.00 | 43 | 1009.0 |
| 20260502023835 | 79 | 256 | 0.0 | 0.0 | 0.00 | 0.00 | 0.00 | 42 | 1008.8 |
| 20260502023332 | 79 | 253 | 0.0 | 0.0 | 0.00 | 0.00 | 0.00 | 42 | 1009.0 |
| 20260502022830 | 80 | 250 | 0.0 | 0.0 | 0.00 | 0.00 | 0.00 | 41 | 1008.9 |
| 20260502022326 | 81 | 248 | 0.0 | 0.0 | 0.00 | 0.00 | 0.00 | 40 | 1008.8 |
| 20260502021823 | 81 | 248 | 0.0 | 0.0 | 0.00 | 0.00 | 0.00 | 39 | 1008.8 |
| 20260502021320 | 82 | 306 | 0.0 | 0.0 | 0.00 | 0.00 | 0.00 | 37 | 1008.8 |
| 20260502020818 | 83 | 282 | 0.0 | 0.0 | 0.00 | 0.00 | 0.00 | 35 | 1008.9 |
| 20260502020315 | 83 | 291 | 0.0 | 0.0 | 0.00 | 0.00 | 0.00 | 34 | 1008.8 |
| 20260502015812 | 84 | 236 | 1.0 | 1.0 | 0.00 | 0.00 | 0.00 | 33 | 1008.9 |
| 20260502015309 | 84 | 265 | 1.0 | 1.0 | 0.00 | 0.00 | 0.00 | 32 | 1008.9 |
| 20260502014806 | 85 | 224 | 2.0 | 2.0 | 0.00 | 0.00 | 0.00 | 31 | 1008.7 |
| 20260502014303 | 85 | 228 | 0.0 | 1.0 | 0.00 | 0.00 | 0.00 | 31 | 1008.8 |
| 20260502013759 | 85 | 213 | 1.0 | 1.0 | 0.00 | 0.00 | 0.00 | 33 | 1008.8 |
| 20260502013255 | 85 | 255 | 2.0 | 2.0 | 0.00 | 0.00 | 0.00 | 32 | 1008.9 |
| 20260502012751 | 86 | 240 | 2.0 | 4.0 | 0.00 | 0.00 | 0.00 | 31 | 1008.7 |
| 20260502012249 | 86 | 238 | 0.0 | 1.0 | 0.00 | 0.00 | 0.00 | 32 | 1009.0 |
| 20260502011747 | 86 | 40 | 0.0 | 0.0 | 0.00 | 0.00 | 0.00 | 30 | 1008.9 |
| 20260502011242 | 87 | 17 | 0.0 | 1.0 | 0.00 | 0.00 | 0.00 | 29 | 1008.8 |
| 20260502010740 | 87 | 132 | 0.0 | 0.0 | 0.00 | 0.00 | 0.00 | 27 | 1008.7 |
| 20260502010236 | 87 | 160 | 0.0 | 0.0 | 0.00 | 0.00 | 0.00 | 31 | 1008.9 |
| 20260502005733 | 87 | 237 | 1.0 | 1.0 | 0.00 | 0.00 | 0.00 | 30 | 1008.9 |
| 20260502005231 | 87 | 239 | 2.0 | 2.0 | 0.00 | 0.00 | 0.00 | 27 | 1008.9 |
| 20260502004728 | 87 | 348 | 0.0 | 1.0 | 0.00 | 0.00 | 0.00 | 26 | 1008.9 |
| 20260502004224 | 87 | 277 | 0.0 | 1.0 | 0.00 | 0.00 | 0.00 | 28 | 1009.0 |
| 20260502003722 | 87 | 95 | 1.0 | 1.0 | 0.00 | 0.00 | 0.00 | 27 | 1008.9 |
| 20260502003219 | 87 | 259 | 4.0 | 5.0 | 0.00 | 0.00 | 0.00 | 26 | 1009.0 |
| 20260502002714 | 87 | 17 | 1.0 | 2.0 | 0.00 | 0.00 | 0.00 | 29 | 1008.9 |
| 20260502002213 | 87 | 251 | 2.0 | 2.0 | 0.00 | 0.00 | 0.00 | 28 | 1009.0 |
| 20260502001709 | 87 | 269 | 2.0 | 2.0 | 0.00 | 0.00 | 0.00 | 26 | 1008.9 |
| 20260502001208 | 87 | 267 | 3.0 | 4.0 | 0.00 | 0.00 | 0.00 | 28 | 1009.0 |
| 20260502000705 | 87 | 244 | 3.0 | 5.0 | 0.00 | 0.00 | 0.00 | 30 | 1009.1 |
| 20260502000204 | 88 | 273 | 4.0 | 5.0 | 0.00 | 0.00 | 0.00 | 29 | 1009.1 |
| 20260501235658 | 88 | 249 | 2.0 | 2.0 | 0.00 | 0.00 | 0.00 | 29 | 1009.1 |
| 20260501235154 | 88 | 348 | 1.0 | 1.0 | 0.00 | 0.00 | 0.00 | 30 | 1009.1 |
| 20260501234650 | 88 | 274 | 0.0 | 1.0 | 0.00 | 0.00 | 0.00 | 28 | 1009.1 |
| 20260501234147 | 87 | 61 | 0.0 | 2.0 | 0.00 | 0.00 | 0.00 | 28 | 1009.3 |
| 20260501233645 | 87 | 237 | 2.0 | 4.0 | 0.00 | 0.00 | 0.00 | 30 | 1009.4 |
| 20260501233142 | 87 | 266 | 4.0 | 5.0 | 0.00 | 0.00 | 0.00 | 30 | 1009.3 |
| 20260501232638 | 86 | 254 | 3.0 | 4.0 | 0.00 | 0.00 | 0.00 | 31 | 1009.4 |
| 20260501232136 | 86 | 277 | 4.0 | 6.0 | 0.00 | 0.00 | 0.00 | 32 | 1009.7 |
| 20260501231633 | 87 | 22 | 0.0 | 1.0 | 0.00 | 0.00 | 0.00 | 31 | 1009.4 |
| 20260501231131 | 86 | 276 | 1.0 | 2.0 | 0.00 | 0.00 | 0.00 | 31 | 1009.7 |
| 20260501230630 | 86 | 255 | 3.0 | 4.0 | 0.00 | 0.00 | 0.00 | 31 | 1009.4 |
| 20260501230127 | 87 | 264 | 5.0 | 6.0 | 0.00 | 0.00 | 0.00 | 30 | 1009.5 |
| 20260501225625 | 86 | 249 | 5.0 | 7.0 | 0.00 | 0.00 | 0.00 | 31 | 1009.5 |
| 20260501225121 | 87 | 269 | 3.0 | 5.0 | 0.00 | 0.00 | 0.00 | 32 | 1009.8 |
| 20260501224618 | 86 | 262 | 3.0 | 4.0 | 0.00 | 0.00 | 0.00 | 33 | 1009.9 |
| 20260501224115 | 86 | 255 | 3.0 | 4.0 | 0.00 | 0.00 | 0.00 | 32 | 1010.1 |
| 20260501223611 | 87 | 258 | 3.0 | 4.0 | 0.00 | 0.00 | 0.00 | 32 | 1010.0 |
| 20260501223108 | 87 | 298 | 1.0 | 2.0 | 0.00 | 0.00 | 0.00 | 32 | 1010.2 |
| 20260501222604 | 88 | 341 | 0.0 | 1.0 | 0.00 | 0.00 | 0.00 | 32 | 1010.1 |
| 20260501222101 | 87 | 288 | 3.0 | 4.0 | 0.00 | 0.00 | 0.00 | 32 | 1010.3 |
| 20260501221558 | 86 | 261 | 1.0 | 1.0 | 0.00 | 0.00 | 0.00 | 32 | 1010.2 |
| 20260501221055 | 87 | 251 | 1.0 | 1.0 | 0.00 | 0.00 | 0.00 | 33 | 1010.5 |
| 20260501220553 | 86 | 74 | 2.0 | 2.0 | 0.00 | 0.00 | 0.00 | 32 | 1010.6 |
| 20260501220050 | 87 | 256 | 3.0 | 4.0 | 0.00 | 0.00 | 0.00 | 32 | 1010.6 |
| 20260501215546 | 86 | 56 | 1.0 | 1.0 | 0.00 | 0.00 | 0.00 | 32 | 1010.6 |
| 20260501215041 | 86 | 231 | 2.0 | 2.0 | 0.00 | 0.00 | 0.00 | 34 | 1010.4 |
| 20260501214537 | 86 | 267 | 3.0 | 5.0 | 0.00 | 0.00 | 0.00 | 34 | 1010.9 |
| 20260501214033 | 85 | 43 | 3.0 | 4.0 | 0.00 | 0.00 | 0.00 | 34 | 1011.0 |
| 20260501213530 | 85 | 303 | 0.0 | 1.0 | 0.00 | 0.00 | 0.00 | 35 | 1011.0 |
| 20260501213026 | 85 | 321 | 2.0 | 2.0 | 0.00 | 0.00 | 0.00 | 34 | 1011.1 |
| 20260501212522 | 85 | 257 | 3.0 | 4.0 | 0.00 | 0.00 | 0.00 | 34 | 1011.0 |
| 20260501212020 | 86 | 322 | 1.0 | 1.0 | 0.00 | 0.00 | 0.00 | 34 | 1011.2 |
| 20260501211516 | 86 | 30 | 1.0 | 1.0 | 0.00 | 0.00 | 0.00 | 33 | 1011.0 |
| 20260501211014 | 85 | 320 | 1.0 | 1.0 | 0.00 | 0.00 | 0.00 | 34 | 1011.1 |
| 20260501210510 | 84 | 235 | 3.0 | 4.0 | 0.00 | 0.00 | 0.00 | 35 | 1011.1 |
| 20260501210007 | 84 | 301 | 1.0 | 2.0 | 0.00 | 0.00 | 0.00 | 33 | 1011.1 |
| 20260501205504 | 83 | 267 | 1.0 | 1.0 | 0.00 | 0.00 | 0.00 | 36 | 1011.2 |
| 20260501205002 | 83 | 229 | 2.0 | 4.0 | 0.00 | 0.00 | 0.00 | 35 | 1011.3 |
| 20260501204457 | 83 | 253 | 5.0 | 6.0 | 0.00 | 0.00 | 0.00 | 36 | 1011.3 |
| 20260501203954 | 82 | 263 | 2.0 | 2.0 | 0.00 | 0.00 | 0.00 | 38 | 1011.3 |
| 20260501203450 | 83 | 242 | 3.0 | 5.0 | 0.00 | 0.00 | 0.00 | 37 | 1011.5 |